�������l�o���
Date,Time,MP-1(��Sv/h),MP-2(��Sv/h),MP-3(��Sv/h),MP-4(��Sv/h),MP-5(��Sv/h),MP-6(��Sv/h),MP-7(��Sv/h),MP-8(��Sv/h),����,����(m/s),���J
2023/07/15,00:00,0.526,0.805,0.491,0.974,0.710,0.325,0.566,0.533,��,3.2,�L
2023/07/15,00:10,0.527,0.805,0.490,0.973,0.709,0.322,0.567,0.533,��쓌,3.2,��
2023/07/15,00:20,0.528,0.804,0.490,0.972,0.711,0.325,0.566,0.533,��쓌,4.3,�L
2023/07/15,00:30,0.528,0.806,0.491,0.973,0.710,0.325,0.567,0.535,��쓌,6.6,�L
2023/07/15,00:40,0.529,0.805,0.491,0.972,0.709,0.323,0.566,0.533,��쓌,6.9,�L
2023/07/15,00:50,0.527,0.805,0.489,0.974,0.710,0.325,0.567,0.533,��,5.7,��
2023/07/15,01:00,0.529,0.806,0.493,0.974,0.707,0.325,0.568,0.532,��,4.9,��
2023/07/15,01:10,0.527,0.805,0.491,0.973,0.709,0.324,0.565,0.532,��,3.5,��
2023/07/15,01:20,0.528,0.805,0.490,0.975,0.710,0.325,0.568,0.533,��,2.3,��
2023/07/15,01:30,0.528,0.806,0.490,0.975,0.710,0.324,0.569,0.532,��,2.8,��
2023/07/15,01:40,0.530,0.806,0.491,0.972,0.709,0.325,0.566,0.534,��,3.8,��
2023/07/15,01:50,0.527,0.807,0.490,0.971,0.710,0.324,0.568,0.533,��쐼,3.3,��
2023/07/15,02:00,0.529,0.808,0.490,0.972,0.710,0.326,0.568,0.532,��,4.4,��
2023/07/15,02:10,0.529,0.804,0.491,0.973,0.710,0.326,0.569,0.535,��,4.6,��
2023/07/15,02:20,0.529,0.807,0.490,0.973,0.709,0.325,0.569,0.533,��쐼,3.8,��
2023/07/15,02:30,0.530,0.805,0.492,0.972,0.708,0.325,0.568,0.533,��쐼,3.4,��
2023/07/15,02:40,0.529,0.806,0.492,0.974,0.710,0.326,0.568,0.534,��쐼,2.6,��
2023/07/15,02:50,0.530,0.806,0.492,0.973,0.710,0.325,0.569,0.532,��쐼,3.5,��
2023/07/15,03:00,0.529,0.805,0.491,0.975,0.709,0.324,0.568,0.533,��쐼,2.8,��
2023/07/15,03:10,0.528,0.808,0.490,0.973,0.711,0.325,0.568,0.533,��쐼,2.0,�L
2023/07/15,03:20,0.530,0.804,0.493,0.975,0.710,0.325,0.568,0.534,��,0.8,�L
2023/07/15,03:30,0.531,0.808,0.490,0.974,0.711,0.325,0.568,0.534,�k,0.6,��
2023/07/15,03:40,0.530,0.807,0.491,0.975,0.711,0.325,0.569,0.532,�k,2.0,��
2023/07/15,03:50,0.530,0.806,0.491,0.972,0.710,0.325,0.569,0.533,�k�k��,2.3,��
2023/07/15,04:00,0.529,0.806,0.491,0.974,0.709,0.325,0.568,0.532,�k��,3.0,��
2023/07/15,04:10,0.529,0.807,0.491,0.974,0.709,0.326,0.569,0.533,�k�k��,2.3,��
2023/07/15,04:20,0.530,0.807,0.491,0.975,0.710,0.326,0.568,0.533,�k,1.2,��
2023/07/15,04:30,0.530,0.807,0.492,0.974,0.708,0.325,0.568,0.535,�k�k��,1.2,��
2023/07/15,04:40,0.529,0.805,0.491,0.975,0.710,0.325,0.570,0.534,���k��,0.9,��
2023/07/15,04:50,0.530,0.806,0.493,0.974,0.710,0.326,0.567,0.532,���쓌,0.8,�L
2023/07/15,05:00,0.532,0.807,0.494,0.976,0.710,0.326,0.569,0.534,-,CALM,�L
2023/07/15,05:10,0.533,0.809,0.493,0.978,0.714,0.327,0.570,0.534,�k�k��,2.8,�L
2023/07/15,05:20,0.534,0.810,0.495,0.977,0.713,0.328,0.569,0.534,�k�k��,2.2,�L
2023/07/15,05:30,0.534,0.810,0.497,0.975,0.714,0.328,0.571,0.535,���k��,1.1,�L
2023/07/15,05:40,0.534,0.812,0.497,0.979,0.714,0.329,0.571,0.534,���k��,2.0,�L
2023/07/15,05:50,0.534,0.809,0.496,0.980,0.716,0.329,0.571,0.536,��,1.5,�L
2023/07/15,06:00,0.534,0.808,0.495,0.976,0.716,0.329,0.569,0.536,��쐼,3.2,�L
2023/07/15,06:10,0.535,0.809,0.496,0.978,0.713,0.330,0.572,0.534,���쐼,2.9,�L
2023/07/15,06:20,0.535,0.812,0.498,0.979,0.715,0.329,0.570,0.535,���쐼,3.5,�L
2023/07/15,06:30,0.536,0.811,0.497,0.976,0.714,0.329,0.570,0.533,���쐼,2.9,�L
2023/07/15,06:40,0.537,0.810,0.498,0.978,0.714,0.331,0.570,0.535,��,3.9,�L
2023/07/15,06:50,0.535,0.810,0.497,0.982,0.715,0.331,0.569,0.536,��,4.2,�L
2023/07/15,07:00,0.537,0.810,0.499,0.979,0.714,0.331,0.571,0.536,��,6.9,�L
2023/07/15,07:10,0.537,0.809,0.499,0.982,0.712,0.336,0.570,0.537,�쐼,3.4,�L
2023/07/15,07:20,0.538,0.807,0.501,0.985,0.713,0.336,0.569,0.533,���쐼,4.0,�L
2023/07/15,07:30,0.537,0.806,0.503,0.982,0.713,0.339,0.569,0.532,���쐼,5.1,�L
2023/07/15,07:40,0.541,0.805,0.503,0.981,0.713,0.340,0.570,0.536,�쐼,5.8,�L
2023/07/15,07:50,0.540,0.805,0.504,0.978,0.713,0.340,0.568,0.535,�쐼,5.2,�L
2023/07/15,08:00,0.540,0.805,0.504,0.977,0.712,0.340,0.568,0.535,��쐼,4.3,�L
2023/07/15,08:10,0.541,0.803,0.501,0.974,0.710,0.339,0.568,0.535,��쐼,3.7,�L
2023/07/15,08:20,0.540,0.800,0.502,0.973,0.708,0.341,0.567,0.533,��쐼,2.6,�L
2023/07/15,08:30,0.537,0.793,0.500,0.968,0.706,0.341,0.565,0.534,��,1.7,�L
2023/07/15,08:40,0.535,0.796,0.500,0.964,0.704,0.339,0.566,0.532,��쓌,2.0,�L
2023/07/15,08:50,0.534,0.793,0.498,0.958,0.704,0.337,0.565,0.531,�쓌,2.9,�L
2023/07/15,09:00,0.534,0.793,0.496,0.958,0.703,0.337,0.563,0.531,�쓌,3.2,�L
2023/07/15,09:10,0.530,0.790,0.494,0.955,0.701,0.335,0.562,0.529,��쓌,2.6,�L
2023/07/15,09:20,0.531,0.788,0.495,0.954,0.699,0.335,0.562,0.529,�쓌,2.2,�L
2023/07/15,09:30,0.530,0.785,0.492,0.952,0.700,0.334,0.561,0.527,��쓌,1.1,�L
2023/07/15,09:40,0.529,0.787,0.492,0.949,0.693,0.335,0.561,0.527,��쓌,3.2,�L
2023/07/15,09:50,0.525,0.784,0.493,0.948,0.694,0.332,0.560,0.528,�쓌,2.6,�L
2023/07/15,10:00,0.523,0.780,0.488,0.945,0.691,0.331,0.559,0.526,��쓌,3.0,�L
2023/07/15,10:10,0.522,0.780,0.490,0.941,0.690,0.331,0.559,0.526,��쓌,3.3,�L
2023/07/15,10:20,0.522,0.780,0.487,0.939,0.690,0.331,0.558,0.525,��쓌,5.1,�L
2023/07/15,10:30,0.524,0.780,0.488,0.941,0.692,0.330,0.558,0.526,��,7.5,�L
2023/07/15,10:40,0.522,0.781,0.490,0.940,0.691,0.333,0.558,0.525,��,7.8,�L
2023/07/15,10:50,0.525,0.780,0.490,0.939,0.689,0.331,0.559,0.525,��,7.8,�L
2023/07/15,11:00,0.523,0.781,0.490,0.936,0.690,0.330,0.559,0.527,��,10.5,�L
2023/07/15,11:10,0.525,0.782,0.491,0.941,0.689,0.331,0.558,0.527,��쓌,9.7,�L
2023/07/15,11:20,0.524,0.783,0.492,0.939,0.690,0.332,0.557,0.525,��쓌,9.4,�L
2023/07/15,11:30,0.522,0.780,0.491,0.940,0.689,0.331,0.558,0.525,��쓌,9.7,�L
2023/07/15,11:40,0.526,0.780,0.490,0.937,0.688,0.330,0.558,0.526,��쓌,9.4,�L
2023/07/15,11:50,0.524,0.778,0.490,0.936,0.686,0.328,0.558,0.526,��쓌,8.8,�L
2023/07/15,12:00,0.522,0.780,0.488,0.936,0.687,0.329,0.557,0.525,��쓌,6.3,�L
2023/07/15,12:10,0.524,0.779,0.488,0.936,0.684,0.328,0.556,0.526,��,6.3,�L
2023/07/15,12:20,0.522,0.777,0.486,0.933,0.685,0.327,0.557,0.525,��,6.7,�L
2023/07/15,12:30,0.518,0.777,0.484,0.932,0.684,0.323,0.555,0.524,��,7.4,�L
2023/07/15,12:40,0.516,0.777,0.485,0.931,0.681,0.322,0.556,0.525,��,8.1,�L
2023/07/15,12:50,0.515,0.774,0.481,0.931,0.681,0.321,0.557,0.523,��,8.3,�L
2023/07/15,13:00,0.515,0.775,0.482,0.930,0.679,0.320,0.556,0.524,��,8.1,�L
2023/07/15,13:10,0.513,0.772,0.480,0.931,0.680,0.319,0.554,0.524,��,7.9,��
2023/07/15,13:20,0.514,0.772,0.478,0.931,0.677,0.320,0.554,0.524,��,7.7,�L
2023/07/15,13:30,0.511,0.770,0.477,0.929,0.677,0.319,0.555,0.522,��,7.1,��
2023/07/15,13:40,0.511,0.771,0.478,0.931,0.677,0.319,0.554,0.522,��쐼,9.0,�L
2023/07/15,13:50,0.510,0.772,0.476,0.929,0.678,0.319,0.555,0.523,��쐼,10.2,�L
2023/07/15,14:00,0.511,0.772,0.477,0.930,0.677,0.317,0.554,0.522,��쐼,10.2,�L
2023/07/15,14:10,0.511,0.773,0.477,0.928,0.679,0.317,0.554,0.521,��,7.8,�L
2023/07/15,14:20,0.509,0.772,0.476,0.929,0.677,0.317,0.553,0.522,��쐼,8.2,�L
2023/07/15,14:30,0.512,0.769,0.475,0.927,0.677,0.316,0.553,0.522,��쐼,7.8,��
2023/07/15,14:40,0.509,0.769,0.477,0.930,0.678,0.317,0.554,0.523,��쐼,7.8,�L
2023/07/15,14:50,0.510,0.771,0.477,0.930,0.678,0.317,0.554,0.521,��쐼,8.2,��
2023/07/15,15:00,0.509,0.769,0.477,0.930,0.678,0.318,0.553,0.522,��쐼,8.8,��
2023/07/15,15:10,0.509,0.770,0.475,0.929,0.679,0.317,0.554,0.522,��쐼,9.3,��
2023/07/15,15:20,0.509,0.772,0.474,0.931,0.679,0.317,0.552,0.521,��쐼,8.1,�L
2023/07/15,15:30,0.510,0.771,0.478,0.929,0.680,0.318,0.553,0.522,��,8.2,�L
2023/07/15,15:40,0.509,0.772,0.476,0.931,0.682,0.317,0.555,0.522,��,7.9,�L
2023/07/15,15:50,0.509,0.774,0.477,0.931,0.680,0.317,0.552,0.524,��쐼,8.5,�L
2023/07/15,16:00,0.509,0.773,0.476,0.930,0.680,0.316,0.555,0.522,��쐼,8.1,�L
2023/07/15,16:10,0.511,0.771,0.478,0.930,0.680,0.317,0.554,0.523,��쐼,8.5,��
2023/07/15,16:20,0.509,0.772,0.476,0.932,0.682,0.318,0.553,0.524,��,8.8,�L
2023/07/15,16:30,0.509,0.773,0.478,0.932,0.681,0.317,0.552,0.524,��,8.5,�L
2023/07/15,16:40,0.511,0.774,0.477,0.930,0.681,0.318,0.554,0.523,��쐼,8.5,�L
2023/07/15,16:50,0.512,0.775,0.477,0.931,0.682,0.318,0.554,0.524,��쐼,7.2,��
2023/07/15,17:00,0.509,0.774,0.479,0.932,0.683,0.317,0.555,0.523,��,7.4,��
2023/07/15,17:10,0.510,0.774,0.478,0.930,0.681,0.318,0.555,0.524,��,7.4,��
2023/07/15,17:20,0.510,0.776,0.478,0.929,0.683,0.317,0.556,0.524,��쐼,7.0,��
2023/07/15,17:30,0.512,0.775,0.478,0.932,0.682,0.317,0.555,0.525,��,7.4,��
2023/07/15,17:40,0.511,0.777,0.477,0.931,0.682,0.317,0.554,0.524,��쐼,7.3,��
2023/07/15,17:50,0.512,0.775,0.479,0.931,0.683,0.318,0.555,0.524,��쐼,7.1,��
2023/07/15,18:00,0.511,0.776,0.478,0.933,0.684,0.317,0.555,0.525,��,8.3,��
2023/07/15,18:10,0.512,0.775,0.478,0.932,0.682,0.319,0.555,0.524,��쐼,7.9,��
2023/07/15,18:20,0.511,0.775,0.479,0.932,0.683,0.318,0.555,0.525,��쐼,6.9,��
2023/07/15,18:30,0.511,0.777,0.478,0.933,0.683,0.319,0.556,0.523,��쐼,6.1,��
2023/07/15,18:40,0.511,0.775,0.478,0.932,0.682,0.318,0.556,0.527,��쐼,6.0,��
2023/07/15,18:50,0.510,0.776,0.479,0.933,0.682,0.317,0.555,0.525,�쐼,5.9,��
2023/07/15,19:00,0.511,0.777,0.478,0.933,0.682,0.319,0.556,0.525,�쐼,6.5,��
2023/07/15,19:10,0.512,0.776,0.476,0.931,0.682,0.318,0.555,0.524,�쐼,7.2,��
2023/07/15,19:20,0.512,0.775,0.479,0.934,0.683,0.317,0.556,0.526,�쐼,7.7,��
2023/07/15,19:30,0.511,0.776,0.479,0.931,0.683,0.320,0.556,0.526,�쐼,8.7,�L
2023/07/15,19:40,0.512,0.778,0.480,0.931,0.682,0.319,0.557,0.526,�쐼,8.3,��
2023/07/15,19:50,0.512,0.775,0.478,0.932,0.681,0.319,0.555,0.525,�쐼,9.8,�L
2023/07/15,20:00,0.513,0.776,0.478,0.933,0.682,0.318,0.556,0.525,�쐼,9.1,��
2023/07/15,20:10,0.513,0.779,0.479,0.933,0.683,0.319,0.556,0.527,�쐼,9.7,��
2023/07/15,20:20,0.512,0.778,0.479,0.931,0.684,0.319,0.556,0.526,�쐼,9.5,��
2023/07/15,20:30,0.514,0.779,0.479,0.934,0.684,0.319,0.557,0.526,�쐼,9.5,��
2023/07/15,20:40,0.512,0.777,0.479,0.933,0.684,0.318,0.557,0.526,�쐼,9.3,��
2023/07/15,20:50,0.514,0.777,0.479,0.933,0.683,0.320,0.555,0.526,�쐼,9.5,��
2023/07/15,21:00,0.513,0.778,0.478,0.935,0.684,0.318,0.557,0.526,�쐼,9.1,��
2023/07/15,21:10,0.513,0.777,0.478,0.934,0.682,0.319,0.557,0.526,�쐼,8.5,��
2023/07/15,21:20,0.514,0.777,0.479,0.933,0.683,0.319,0.557,0.526,��쐼,7.7,�L
2023/07/15,21:30,0.513,0.777,0.478,0.934,0.683,0.319,0.558,0.527,��쐼,7.2,�L
2023/07/15,21:40,0.513,0.778,0.479,0.934,0.682,0.318,0.557,0.526,��쐼,6.6,�L
2023/07/15,21:50,0.515,0.778,0.478,0.933,0.685,0.319,0.559,0.525,�쐼,7.1,��
2023/07/15,22:00,0.514,0.780,0.480,0.934,0.682,0.319,0.557,0.525,��쐼,6.9,�L
2023/07/15,22:10,0.513,0.777,0.479,0.935,0.683,0.318,0.557,0.526,�쐼,6.7,��
2023/07/15,22:20,0.514,0.778,0.480,0.935,0.684,0.318,0.556,0.527,�쐼,8.5,��
2023/07/15,22:30,0.514,0.780,0.481,0.936,0.684,0.319,0.558,0.526,�쐼,8.5,��
2023/07/15,22:40,0.514,0.779,0.481,0.934,0.685,0.320,0.558,0.527,�쐼,8.0,��
2023/07/15,22:50,0.513,0.779,0.481,0.934,0.683,0.319,0.557,0.527,�쐼,8.0,��
2023/07/15,23:00,0.515,0.777,0.480,0.934,0.683,0.319,0.558,0.526,���쐼,7.8,��
2023/07/15,23:10,0.513,0.776,0.479,0.935,0.685,0.319,0.558,0.527,�쐼,6.8,��
2023/07/15,23:20,0.513,0.776,0.480,0.932,0.683,0.320,0.558,0.527,�쐼,6.1,��
2023/07/15,23:30,0.515,0.779,0.480,0.935,0.683,0.320,0.558,0.525,�쐼,5.4,��
2023/07/15,23:40,0.515,0.779,0.481,0.936,0.684,0.319,0.557,0.527,�쐼,5.5,��
2023/07/15,23:50,0.513,0.777,0.480,0.935,0.683,0.319,0.556,0.527,�쐼,6.8,��
